Powrót do katalogu

STARLINK-35537

AktywnyŁącznośćVLEO
NORAD 66234·PAYLOAD·🇺🇸 United States

Wystrzelony Oct 29, 2025 z Cape Canaveral Space Force Station

Loading…

Następne Przeloty (najbliższe 24 godziny)

TLE

ŚwieżeSource: CelesTrak SupGP

Epoka: Sep 15, 2026, 02:43 UTC

1 66234C 25245A   26258.11368056  .00035853  00000+0  11530-2 0  2585
2 66234  53.1565 122.3599 0001234  87.1915 212.5081 15.31682786    17

Śledź STARLINK-35537 w czasie rzeczywistym z AllMySat

Download on the App Store